DMSP 5D-2 F13 DEB, 42272

Orbit data source: Space-Track

DMSP 5D-2 F13 DEB, 42272 is space debris in SSO originally from a launch on Fri, 24 Mar 1995 UTC launched from the Air Force Western Test Range (AFWTR). Debris objects in space refer to the collection of defunct objects orbiting the Earth. Examples of debris include non-operational satellites, rocket bodies, and fragments generated from explosions, collisions, or faulty payload assembly.

Loading next visibility...
Identifier
42272, 1995-015GN
Orbit
SSO
Country
Flag of USUS
Related business
Manufacturer
Unknown
Mission
Spacecraft
Bus & Motor
Unknown
Mass
Unknown
Launch date (UTC)
1995-03-24 (31 years ago)
Launch vehicle
Unknown
Launch site
Air Force Western Test Range (AFWTR)
Object type
Payload
Rocket body
Debris
Shape & HBR
Unknown shape, 0.1 m
Radar Cross Section
Medium (>0.1 m² and <1 m²)

Expand to show TLE details & history
Last TLE update: 2 days ago

TLE from 2 days ago
0 DMSP 5D-2 F13 DEB
1 42272U 95015GN  26171.03616246  .00002959  00000-0  10658-2 0  9999
2 42272  98.8626 201.7613 0021920 185.1330 174.9633 14.34353163568109
Epoch: 2026-06-20T00:52Z
TLE epoch observation values (Epoch: 2026-06-20T00:52:04.436Z)
Latitude
0.00003°
Longitude
-79.51374°
Altitude
795.773 km
Speed
7.448 km/s
True Right ascension
13h 27m 02s
True Declination
0° 00' 00"
Sunlit
Object was in daylight at epoch
Visualization orbit readout
Latitude
Unknown
Longitude
Unknown
Altitude
Unknown
Speed
Unknown
Apparent Right ascension
Unknown
Apparent Declination
Unknown
Sunlit
N/A
Visualization observer readout
Local Sidereal Time
20:59:51
Azimuth
Unknown
Elevation
Unknown
Doppler factor
Unknown
Orbital elements
Apogee altitude
790.042 km
Perigee altitude
758.685 km
Semi-major axis
7,152.501 km
Eccentricity
0.00219
Inclination
98.8626°
RAAN
201.7613°
Arg. of periapsis
185.133°
True anomaly
174.98529°
Mean anomaly
174.9633°
Eccentric anomaly
174.9743°
Mean motion
3.58803 °/min
Orbital period
100.33 mins
BSTAR
0.0010658
Loading maneuver chart data...
Computing Atmospheric mass density...

Documentation

Showing up to 5 results
|